| time (UTC) | temp F | wind direction | speed MPH | gust MPH | rain 1hr in | rain 24hr in | rain mn in | humidity % | barometer mb |
| 20260904110046 | 59 | 0 | 0.0 | 2.0 | 0.00 | 0.00 | 0.00 | 99 | 1012.2 |
| 20260904104553 | 60 | 0 | 0.0 | 2.0 | 0.00 | 0.00 | 0.00 | 99 | 1012.1 |
| 20260904103049 | 59 | 0 | 0.0 | 0.0 | 0.00 | 0.00 | 0.00 | 99 | 1011.9 |
| 20260904101547 | 59 | 0 | 0.0 | 0.0 | 0.00 | 0.00 | 0.00 | 98 | 1011.7 |
| 20260904100045 | 60 | 0 | 0.0 | 0.0 | 0.00 | 0.00 | 0.00 | 98 | 1011.6 |
| 20260904094551 | 60 | 0 | 0.0 | 0.0 | 0.00 | 0.00 | 0.00 | 99 | 1011.5 |
| 20260904093049 | 60 | 0 | 0.0 | 3.0 | 0.00 | 0.00 | 0.00 | 99 | 1011.4 |
| 20260904091542 | 59 | 0 | 0.0 | 0.0 | 0.00 | 0.00 | 0.00 | 98 | 1011.2 |
| 20260904090051 | 59 | 0 | 0.0 | 0.0 | 0.00 | 0.00 | 0.00 | 98 | 1011.3 |
| 20260904084557 | 59 | 0 | 0.0 | 0.0 | 0.00 | 0.00 | 0.00 | 98 | 1011.1 |
| 20260904083043 | 59 | 0 | 0.0 | 0.0 | 0.00 | 0.00 | 0.00 | 98 | 1011.2 |
| 20260904081551 | 59 | 0 | 0.0 | 0.0 | 0.00 | 0.00 | 0.00 | 98 | 1011.0 |
| 20260904074545 | 59 | 0 | 0.0 | 0.0 | 0.00 | 0.00 | 0.00 | 98 | 1011.1 |
| 20260904073052 | 60 | 0 | 0.0 | 0.0 | 0.00 | 0.00 | 0.00 | 98 | 1011.1 |
| 20260904071549 | 60 | 0 | 0.0 | 0.0 | 0.00 | 0.00 | 0.00 | 98 | 1011.3 |
| 20260904070054 | 60 | 0 | 0.0 | 0.0 | 0.00 | 0.00 | 0.00 | 98 | 1011.3 |
| 20260904064552 | 60 | 0 | 0.0 | 0.0 | 0.00 | 0.00 | 0.00 | 98 | 1011.3 |
| 20260904063110 | 60 | 0 | 0.0 | 0.0 | 0.00 | 0.00 | 0.00 | 98 | 1011.5 |
| 20260904061550 | 60 | 0 | 0.0 | 0.0 | 0.00 | 0.00 | 0.00 | 98 | 1011.6 |
| 20260904060051 | 60 | 0 | 0.0 | 0.0 | 0.00 | 0.00 | 0.00 | 97 | 1011.7 |
| 20260904054553 | 60 | 0 | 0.0 | 0.0 | 0.00 | 0.00 | 0.00 | 97 | 1011.8 |
| 20260904053105 | 60 | 0 | 0.0 | 0.0 | 0.00 | 0.00 | 0.00 | 97 | 1011.7 |
| 20260904051551 | 61 | 0 | 0.0 | 0.0 | 0.00 | 0.00 | 0.00 | 97 | 1011.6 |
| 20260904050044 | 61 | 0 | 0.0 | 0.0 | 0.00 | 0.00 | 0.00 | 97 | 1011.8 |
| 20260904044554 | 61 | 0 | 0.0 | 0.0 | 0.00 | 0.01 | 0.00 | 97 | 1012.0 |
| 20260904043056 | 62 | 0 | 0.0 | 0.0 | 0.00 | 0.01 | 0.00 | 97 | 1012.1 |
| 20260904041553 | 62 | 0 | 0.0 | 0.0 | 0.00 | 0.01 | 0.00 | 97 | 1012.2 |
| 20260904040051 | 63 | 0 | 0.0 | 0.0 | 0.00 | 0.01 | 0.00 | 96 | 1012.1 |
| 20260904034547 | 63 | 0 | 0.0 | 0.0 | 0.00 | 0.07 | 0.01 | 96 | 1012.2 |
| 20260904033054 | 63 | 0 | 0.0 | 0.0 | 0.00 | 0.07 | 0.01 | 96 | 1012.3 |
| 20260904031552 | 63 | 0 | 0.0 | 0.0 | 0.00 | 0.07 | 0.01 | 96 | 1012.2 |
| 20260904024545 | 64 | 0 | 0.0 | 1.0 | 0.00 | 0.07 | 0.01 | 95 | 1012.3 |
| 20260904023053 | 65 | 0 | 0.0 | 0.0 | 0.00 | 0.07 | 0.01 | 95 | 1012.6 |
| 20260904021556 | 65 | 0 | 0.0 | 0.0 | 0.00 | 0.07 | 0.01 | 94 | 1012.7 |
| 20260904020048 | 65 | 0 | 0.0 | 0.0 | 0.00 | 0.07 | 0.01 | 94 | 1012.6 |
| 20260904014551 | 66 | 0 | 0.0 | 0.0 | 0.00 | 0.07 | 0.01 | 94 | 1012.6 |
| 20260904013112 | 66 | 0 | 0.0 | 0.0 | 0.00 | 0.07 | 0.01 | 94 | 1012.7 |
| 20260904011618 | 66 | 0 | 0.0 | 0.0 | 0.00 | 0.07 | 0.01 | 93 | 1012.6 |
| 20260904010044 | 67 | 0 | 0.0 | 0.0 | 0.00 | 0.07 | 0.01 | 92 | 1012.6 |
| 20260904004552 | 67 | 0 | 0.0 | 0.0 | 0.00 | 0.07 | 0.01 | 92 | 1012.5 |
| 20260904003048 | 68 | 0 | 0.0 | 1.0 | 0.00 | 0.07 | 0.01 | 90 | 1012.3 |
| 20260904001544 | 69 | 0 | 0.0 | 0.0 | 0.00 | 0.07 | 0.01 | 89 | 1012.5 |
| 20260904000048 | 70 | 0 | 0.0 | 0.0 | 0.00 | 0.07 | 0.01 | 88 | 1012.2 |
| 20260903234551 | 71 | 0 | 0.0 | 0.0 | 0.00 | 0.07 | 0.01 | 86 | 1012.0 |
| 20260903233049 | 72 | 0 | 0.0 | 0.0 | 0.00 | 0.07 | 0.01 | 83 | 1011.8 |
| 20260903231550 | 74 | 0 | 0.0 | 0.0 | 0.00 | 0.07 | 0.01 | 80 | 1011.6 |
| 20260903230050 | 75 | 0 | 0.0 | 0.0 | 0.00 | 0.07 | 0.01 | 78 | 1011.8 |
| 20260903224558 | 76 | 0 | 0.0 | 0.0 | 0.00 | 0.07 | 0.01 | 77 | 1012.0 |
| 20260903223051 | 76 | 0 | 0.0 | 3.0 | 0.00 | 0.07 | 0.01 | 76 | 1012.1 |
| 20260903221547 | 77 | 0 | 0.0 | 6.0 | 0.00 | 0.07 | 0.01 | 74 | 1011.9 |
| 20260903220049 | 78 | 0 | 0.0 | 7.0 | 0.00 | 0.07 | 0.01 | 72 | 1011.9 |
| 20260903214543 | 79 | 272 | 1.0 | 4.0 | 0.00 | 0.07 | 0.01 | 69 | 1011.8 |
| 20260903213052 | 79 | 214 | 1.0 | 9.0 | 0.00 | 0.07 | 0.01 | 67 | 1011.7 |
| 20260903211552 | 79 | 288 | 3.0 | 10.0 | 0.00 | 0.07 | 0.01 | 68 | 1012.0 |
| 20260903210057 | 79 | 231 | 1.0 | 9.0 | 0.00 | 0.07 | 0.01 | 69 | 1012.0 |
| 20260903204602 | 80 | 251 | 3.0 | 9.0 | 0.00 | 0.07 | 0.01 | 70 | 1012.1 |
| 20260903203051 | 80 | 317 | 3.0 | 10.0 | 0.00 | 0.07 | 0.01 | 69 | 1012.0 |
| 20260903201548 | 80 | 0 | 2.0 | 10.0 | 0.00 | 0.07 | 0.01 | 73 | 1012.0 |
| 20260903200058 | 80 | 295 | 4.0 | 12.0 | 0.00 | 0.07 | 0.01 | 70 | 1011.9 |
| 20260903194542 | 80 | 253 | 2.0 | 10.0 | 0.00 | 0.07 | 0.01 | 73 | 1012.1 |
| 20260903193049 | 79 | 275 | 4.0 | 10.0 | 0.00 | 0.07 | 0.01 | 75 | 1012.4 |
| 20260903191545 | 79 | 265 | 3.0 | 9.0 | 0.00 | 0.07 | 0.01 | 78 | 1012.2 |
| 20260903190049 | 79 | 283 | 3.0 | 9.0 | 0.00 | 0.07 | 0.01 | 77 | 1012.2 |
| 20260903184554 | 79 | 285 | 2.0 | 10.0 | 0.00 | 0.07 | 0.01 | 80 | 1012.5 |
| 20260903183055 | 78 | 277 | 2.0 | 9.0 | 0.00 | 0.07 | 0.01 | 80 | 1012.5 |
| 20260903181547 | 78 | 305 | 3.0 | 12.0 | 0.00 | 0.07 | 0.01 | 83 | 1012.6 |
| 20260903180047 | 77 | 280 | 3.0 | 11.0 | 0.00 | 0.07 | 0.01 | 84 | 1012.6 |
| 20260903174552 | 75 | 298 | 2.0 | 12.0 | 0.00 | 0.07 | 0.01 | 86 | 1012.7 |
| 20260903173051 | 76 | 281 | 4.0 | 13.0 | 0.00 | 0.07 | 0.01 | 85 | 1012.8 |
| 20260903171602 | 75 | 0 | 3.0 | 10.0 | 0.00 | 0.07 | 0.01 | 88 | 1012.9 |
| 20260903170052 | 74 | 257 | 3.0 | 11.0 | 0.00 | 0.07 | 0.01 | 89 | 1012.9 |
| 20260903164555 | 75 | 313 | 1.0 | 7.0 | 0.00 | 0.07 | 0.01 | 89 | 1012.9 |
| 20260903163050 | 74 | 277 | 1.0 | 6.0 | 0.00 | 0.07 | 0.01 | 92 | 1013.0 |
| 20260903161549 | 72 | 0 | 0.0 | 3.0 | 0.00 | 0.07 | 0.01 | 92 | 1013.3 |
| 20260903160049 | 73 | 0 | 0.0 | 4.0 | 0.00 | 0.07 | 0.01 | 91 | 1013.3 |
| 20260903154550 | 73 | 0 | 0.0 | 3.0 | 0.00 | 0.07 | 0.01 | 91 | 1013.5 |
| 20260903153050 | 72 | 0 | 1.0 | 4.0 | 0.00 | 0.07 | 0.01 | 92 | 1013.4 |
| 20260903151559 | 72 | 0 | 0.0 | 7.0 | 0.00 | 0.07 | 0.01 | 92 | 1013.5 |
| 20260903150051 | 72 | 0 | 0.0 | 3.0 | 0.00 | 0.07 | 0.01 | 92 | 1013.4 |
| 20260903144549 | 71 | 323 | 0.0 | 5.0 | 0.00 | 0.07 | 0.01 | 94 | 1013.6 |
| 20260903143048 | 70 | 180 | 0.0 | 3.0 | 0.00 | 0.07 | 0.01 | 95 | 1013.5 |
| 20260903141548 | 70 | 0 | 0.0 | 3.0 | 0.00 | 0.07 | 0.01 | 98 | 1013.3 |
| 20260903140107 | 69 | 0 | 0.0 | 4.0 | 0.00 | 0.07 | 0.01 | 99 | 1013.5 |
| 20260903134553 | 68 | 0 | 0.0 | 2.0 | 0.00 | 0.07 | 0.01 | 99 | 1013.3 |
| 20260903133049 | 67 | 0 | 0.0 | 0.0 | 0.00 | 0.07 | 0.01 | 100 | 1013.3 |
| 20260903131548 | 67 | 0 | 0.0 | 0.0 | 0.00 | 0.07 | 0.01 | 100 | 1013.3 |
| 20260903130050 | 66 | 0 | 0.0 | 0.0 | 0.00 | 0.07 | 0.01 | 100 | 1013.5 |
| 20260903124605 | 65 | 0 | 0.0 | 0.0 | 0.00 | 0.07 | 0.01 | 100 | 1013.8 |
| 20260903123047 | 65 | 0 | 0.0 | 0.0 | 0.00 | 0.07 | 0.01 | 100 | 1013.8 |
| 20260903121547 | 64 | 0 | 0.0 | 0.0 | 0.00 | 0.07 | 0.01 | 99 | 1013.8 |
| 20260903120101 | 64 | 0 | 0.0 | 0.0 | 0.00 | 0.07 | 0.01 | 99 | 1013.7 |
| 20260903114548 | 64 | 0 | 0.0 | 0.0 | 0.00 | 0.07 | 0.01 | 99 | 1013.8 |
| 20260903113055 | 63 | 0 | 0.0 | 0.0 | 0.00 | 0.07 | 0.01 | 100 | 1013.8 |
| 20260903111546 | 63 | 0 | 0.0 | 0.0 | 0.00 | 0.07 | 0.01 | 99 | 1013.8 |